IST,Max TemperatureF,Mean TemperatureF,Min TemperatureF,Max Dew PointF,MeanDew PointF,Min DewpointF,Max Humidity, Mean Humidity, Min Humidity, Max Sea Level PressureIn, Mean Sea Level PressureIn, Min Sea Level PressureIn, Max VisibilityMiles, Mean VisibilityMiles, Min VisibilityMiles, Max Wind SpeedMPH, Mean Wind SpeedMPH, Max Gust SpeedMPH,PrecipitationIn, CloudCover, Events, WindDirDegrees
2013-8-1,89,84,79,81,79,77,100,86,69,29.59,29.52,29.39,2,2,1,12,3,23,0.00,6,,56
2013-8-2,90,84,79,79,78,76,94,82,61,29.62,29.54,29.43,2,2,1,13,7,,0.00,4,,84
2013-8-3,89,84,78,79,78,77,94,86,70,29.65,29.60,29.50,2,2,1,12,7,,0.31,4,Rain,104
2013-8-4,87,82,78,80,79,77,100,93,75,29.68,29.63,29.54,2,2,1,9,2,,0.24,6,Rain,229
2013-8-5,91,84,77,81,78,76,100,89,71,29.71,29.62,29.52,2,2,1,8,5,,0.35,6,Rain-Thunderstorm,298
2013-8-6,83,80,76,79,78,77,100,93,82,29.71,29.65,29.56,2,2,1,7,2,,0.20,6,Rain,327
2013-8-7,89,83,77,81,78,75,100,89,61,29.71,29.65,29.34,2,2,1,12,3,,0.79,7,Rain-Thunderstorm,315
2013-8-8,88,82,76,79,78,77,100,88,68,29.71,29.65,29.55,2,2,1,13,6,,0.08,6,Rain,278
2013-8-9,87,82,77,79,77,76,100,94,66,29.65,29.62,29.54,2,2,1,10,5,,0.83,7,Rain-Thunderstorm,277
2013-8-10,85,81,77,81,78,76,100,95,82,29.65,29.60,29.50,2,1,1,8,4,,0.31,7,Rain-Thunderstorm,300
2013-8-11,84,80,76,81,78,77,100,98,89,29.68,29.63,29.56,2,1,0,8,4,,0.83,7,Rain-Thunderstorm,285
2013-8-12,84,80,77,81,79,77,100,97,89,29.71,29.63,29.52,2,1,1,7,3,,0.00,7,Rain,300
2013-8-13,88,82,77,81,79,77,100,90,72,29.74,29.57,29.47,3,2,1,10,5,,0.00,5,Rain-Thunderstorm,103
2013-8-14,86,82,77,79,78,76,100,96,79,29.65,29.58,29.50,2,1,1,86,8,,0.51,7,Rain-Thunderstorm,119
2013-8-15,88,82,77,81,79,77,100,90,56,29.71,29.63,29.50,2,1,1,9,2,,0.28,7,Rain-Thunderstorm,227
2013-8-16,89,83,77,81,78,75,100,92,63,29.68,29.61,29.50,2,2,1,13,2,,0.12,6,Rain-Thunderstorm,212
2013-8-17,91,83,75,81,78,75,100,89,70,29.65,29.57,29.47,2,2,0,46,5,,0.02,6,Rain-Hail-Thunderstorm,275
2013-8-18,89,82,75,79,78,75,100,85,66,29.65,29.59,29.53,2,2,0,13,6,,0.91,7,Rain-Thunderstorm,292
2013-8-19,87,81,75,81,77,75,100,92,72,29.68,29.61,29.53,2,2,1,10,4,,0.67,8,Rain-Hail-Thunderstorm,303
2013-8-20,84,80,75,81,76,73,100,91,73,29.62,29.58,29.47,2,2,1,8,4,,0.04,8,Rain,311
2013-8-21,85,80,74,80,76,72,100,90,82,29.68,29.59,29.50,2,2,0,12,5,,0.01,7,Rain-Thunderstorm,289
2013-8-22,87,82,77,79,76,73,94,85,72,29.71,29.64,29.56,2,2,1,12,3,,0.01,6,,327
2013-8-23,87,82,78,79,77,73,100,87,62,29.71,29.63,29.54,3,2,1,10,4,,0.63,6,Rain-Thunderstorm,320
2013-8-24,89,84,78,81,79,77,100,85,65,29.68,29.63,29.55,3,2,2,7,2,,0.00,5,,69
2013-8-25,94,86,79,81,78,75,100,83,48,29.68,29.61,29.51,2,2,1,16,2,31,1.14,5,Rain-Thunderstorm,260
2013-8-26,95,86,78,81,78,76,100,76,56,29.65,29.58,29.47,2,2,1,12,6,,0.00,4,,294
2013-8-27,96,87,78,78,75,71,89,73,42,29.71,29.63,29.54,3,2,1,13,9,,0.00,3,,288
2013-8-28,91,84,76,73,72,71,83,73,51,29.80,29.72,29.61,3,2,2,18,6,,0.00,4,,292
2013-8-29,96,86,75,75,72,70,89,69,49,29.80,29.74,29.62,3,2,2,10,4,,0.00,3,,292
2013-8-30,97,84,77,75,72,71,83,71,50,29.80,29.73,29.62,3,2,1,10,6,,0.00,5,,297
2013-8-31,91,84,77,73,72,71,80,65,45,29.71,29.68,29.62,3,2,2,9,6,,0.00,3,,290